{"data":{"norad_id":41847,"intl_designator":"2016-066G","name":"CAS-2T & KS-1Q","alt_names":[],"object_type":"PAYLOAD","status":"ACTIVE","operator":null,"country":"PRC","launch_date":"2016-11-09","launch_site_code":"JSC","launch_vehicle":null,"mission":null,"orbit_class":"UNKNOWN","rcs_meters":0.1175,"size_class":null,"mass_kg":null,"dimensions":null,"purposes":["comms"],"wikipedia_slug":null,"has_3d_model":false,"image_url":null,"decayed_at":null,"tle_current":{"epoch":"2026-09-19T23:31:31.744992Z","epoch_age_seconds":59284,"freshness":"FRESH","line1":"1 41847U 16066G   26262.98022853  .00000835  00000+0  12613-3 0  9999","line2":"2 41847  98.3748 337.6227 0340814 201.6995 156.9462 14.44849840518482","mean_motion":14.4484984,"eccentricity":0.0340814,"inclination_deg":98.3748,"raan_deg":337.6227,"arg_perigee_deg":201.6995,"mean_anomaly_deg":156.9462,"bstar":0.00012613,"rev_number":51848,"period_min":99.664336053081,"perigee_km":499.83749305249,"apogee_km":985.20137337848,"semimajor_km":7120.6564332155,"source":"CELESTRAK","updated_at":"2026-09-20T09:00:45.234356Z"}}}